Time,TemperatureF,DewpointF,PressureIn,WindDirection,WindDirectionDegrees,WindSpeedMPH,WindSpeedGustMPH,Humidity,HourlyPrecipIn,Conditions,Clouds,dailyrainin,SolarRadiationWatts/m^2,SoftwareType,DateUTC
2013-09-03 00:00:00,78.7,68.9,29.62,West,271,2.0,9.0,72,0.00,,SKC,0.00,0.00,VWS V14.01,2013-09-03 05:00:00,
2013-09-03 00:01:00,78.7,68.9,29.62,West,271,4.0,9.0,72,0.00,,SKC,0.00,0.00,VWS V14.01,2013-09-03 05:01:00,
2013-09-03 00:06:00,78.5,68.7,29.62,West,271,5.0,9.0,72,0.00,,SKC,0.00,0.00,VWS V14.01,2013-09-03 05:06:00,
2013-09-03 00:10:00,78.4,68.6,29.62,West,271,6.0,9.0,72,0.00,,SKC,0.00,0.00,VWS V14.01,2013-09-03 05:10:00,
2013-09-03 00:11:00,78.4,68.6,29.62,West,271,6.0,9.0,72,0.00,,SKC,0.00,0.00,VWS V14.01,2013-09-03 05:11:00,
2013-09-03 00:16:00,78.3,68.5,29.62,West,271,2.0,8.0,72,0.00,,SKC,0.00,0.00,VWS V14.01,2013-09-03 05:16:00,
2013-09-03 00:20:00,78.0,68.7,29.61,West,271,0.0,8.0,73,0.00,,SKC,0.00,0.00,VWS V14.01,2013-09-03 05:20:00,
2013-09-03 00:21:00,78.0,68.7,29.62,West,271,0.0,8.0,73,0.00,,SKC,0.00,0.00,VWS V14.01,2013-09-03 05:21:00,
2013-09-03 00:26:00,77.9,68.6,29.61,West,271,5.0,8.0,73,0.00,,SKC,0.00,0.00,VWS V14.01,2013-09-03 05:26:00,
2013-09-03 00:30:00,77.7,68.4,29.61,West,271,0.0,8.0,73,0.00,,SKC,0.00,0.00,VWS V14.01,2013-09-03 05:30:00,
2013-09-03 00:31:00,77.7,68.4,29.61,West,271,1.0,8.0,73,0.00,,SKC,0.00,0.00,VWS V14.01,2013-09-03 05:31:00,
2013-09-03 00:36:00,77.5,68.2,29.61,West,271,1.0,9.0,73,0.00,,SKC,0.00,0.00,VWS V14.01,2013-09-03 05:36:00,
2013-09-03 00:40:00,77.3,68.4,29.61,West,271,2.0,9.0,74,0.00,,SKC,0.00,0.00,VWS V14.01,2013-09-03 05:40:00,
2013-09-03 00:41:00,77.3,68.4,29.61,West,271,2.0,9.0,74,0.00,,SKC,0.00,0.00,VWS V14.01,2013-09-03 05:41:00,
2013-09-03 00:46:00,77.0,68.1,29.61,West,271,1.0,8.0,74,0.00,,SKC,0.00,0.00,VWS V14.01,2013-09-03 05:46:00,
2013-09-03 00:50:00,76.9,68.0,29.61,West,271,4.0,8.0,74,0.00,,SKC,0.00,0.00,VWS V14.01,2013-09-03 05:50:00,
2013-09-03 00:51:00,76.9,68.0,29.61,West,271,4.0,8.0,74,0.00,,SKC,0.00,0.00,VWS V14.01,2013-09-03 05:51:00,
2013-09-03 00:56:00,76.7,67.8,29.61,West,271,2.0,6.0,74,0.00,,SKC,0.00,0.00,VWS V14.01,2013-09-03 05:56:00,
2013-09-03 01:00:00,76.6,68.1,29.61,West,271,2.0,6.0,75,0.00,,SKC,0.00,0.00,VWS V14.01,2013-09-03 06:00:00,
2013-09-03 01:01:00,76.6,68.1,29.61,West,271,2.0,6.0,75,0.00,,SKC,0.00,0.00,VWS V14.01,2013-09-03 06:01:00,
2013-09-03 01:06:00,76.4,67.5,29.61,West,271,1.0,6.0,74,0.00,,SKC,0.00,0.00,VWS V14.01,2013-09-03 06:06:00,
2013-09-03 01:10:00,76.4,67.9,29.61,West,271,4.0,6.0,75,0.00,,SKC,0.00,0.00,VWS V14.01,2013-09-03 06:10:00,
2013-09-03 01:11:00,76.3,67.8,29.61,West,271,4.0,6.0,75,0.00,,SKC,0.00,0.00,VWS V14.01,2013-09-03 06:11:00,
2013-09-03 01:16:00,76.2,67.7,29.61,West,271,4.0,6.0,75,0.00,,SKC,0.00,0.00,VWS V14.01,2013-09-03 06:16:00,
2013-09-03 01:20:00,76.2,67.7,29.61,West,271,0.0,6.0,75,0.00,,SKC,0.00,0.00,VWS V14.01,2013-09-03 06:20:00,
2013-09-03 01:21:00,76.2,67.7,29.61,West,271,0.0,6.0,75,0.00,,SKC,0.00,0.00,VWS V14.01,2013-09-03 06:21:00,
2013-09-03 01:26:00,76.1,67.6,29.61,West,271,1.0,5.0,75,0.00,,SKC,0.00,0.00,VWS V14.01,2013-09-03 06:26:00,
2013-09-03 01:30:00,76.0,67.5,29.61,West,271,2.0,5.0,75,0.00,,SKC,0.00,0.00,VWS V14.01,2013-09-03 06:30:00,
2013-09-03 01:31:00,76.0,67.5,29.61,West,271,1.0,5.0,75,0.00,,SKC,0.00,0.00,VWS V14.01,2013-09-03 06:31:00,
2013-09-03 01:36:00,75.9,67.4,29.61,West,271,0.0,4.0,75,0.00,,SKC,0.00,0.00,VWS V14.01,2013-09-03 06:36:00,
2013-09-03 01:40:00,75.8,67.3,29.61,West,271,0.0,4.0,75,0.00,,SKC,0.00,0.00,VWS V14.01,2013-09-03 06:40:00,
2013-09-03 01:41:00,75.8,67.3,29.61,West,271,0.0,4.0,75,0.00,,SKC,0.00,0.00,VWS V14.01,2013-09-03 06:41:00,
2013-09-03 01:46:00,75.8,67.3,29.61,West,271,0.0,5.0,75,0.00,,SKC,0.00,0.00,VWS V14.01,2013-09-03 06:46:00,
2013-09-03 01:50:00,75.7,67.2,29.60,West,271,0.0,5.0,75,0.00,,SKC,0.00,0.00,VWS V14.01,2013-09-03 06:50:00,
2013-09-03 01:51:00,75.7,67.2,29.60,West,271,0.0,5.0,75,0.00,,SKC,0.00,0.00,VWS V14.01,2013-09-03 06:51:00,
2013-09-03 01:56:00,75.6,67.1,29.61,West,271,0.0,4.0,75,0.00,,SKC,0.00,0.00,VWS V14.01,2013-09-03 06:56:00,
2013-09-03 02:00:00,75.6,67.5,29.60,West,271,0.0,4.0,76,0.00,,SKC,0.00,0.00,VWS V14.01,2013-09-03 07:00:00,
2013-09-03 02:01:00,75.6,67.5,29.60,West,271,0.0,4.0,76,0.00,,SKC,0.00,0.00,VWS V14.01,2013-09-03 07:01:00,
2013-09-03 02:06:00,75.5,67.4,29.61,West,271,1.0,4.0,76,0.00,,SKC,0.00,0.00,VWS V14.01,2013-09-03 07:06:00,
2013-09-03 02:10:00,75.4,67.3,29.60,West,271,0.0,4.0,76,0.00,,SKC,0.00,0.00,VWS V14.01,2013-09-03 07:10:00,
2013-09-03 02:11:00,75.4,67.3,29.60,West,271,0.0,4.0,76,0.00,,SKC,0.00,0.00,VWS V14.01,2013-09-03 07:11:00,
2013-09-03 02:16:00,75.3,67.2,29.61,West,271,1.0,2.0,76,0.00,,SKC,0.00,0.00,VWS V14.01,2013-09-03 07:16:00,
2013-09-03 02:20:00,75.2,67.1,29.61,West,271,2.0,2.0,76,0.00,,SKC,0.00,0.00,VWS V14.01,2013-09-03 07:20:00,
2013-09-03 02:21:00,75.2,67.1,29.61,West,271,2.0,2.0,76,0.00,,SKC,0.00,0.00,VWS V14.01,2013-09-03 07:21:00,
2013-09-03 02:26:00,75.1,67.0,29.61,West,271,0.0,4.0,76,0.00,,SKC,0.00,0.00,VWS V14.01,2013-09-03 07:26:00,
2013-09-03 02:30:00,75.0,67.3,29.61,West,271,0.0,4.0,77,0.00,,SKC,0.00,0.00,VWS V14.01,2013-09-03 07:30:00,
2013-09-03 02:31:00,75.0,67.3,29.61,West,271,0.0,4.0,77,0.00,,SKC,0.00,0.00,VWS V14.01,2013-09-03 07:31:00,
2013-09-03 02:36:00,74.9,67.2,29.61,West,271,4.0,4.0,77,0.00,,SKC,0.00,0.00,VWS V14.01,2013-09-03 07:36:00,
2013-09-03 02:40:00,74.9,67.2,29.61,West,271,1.0,4.0,77,0.00,,SKC,0.00,0.00,VWS V14.01,2013-09-03 07:40:00,
2013-09-03 02:41:00,74.9,67.2,29.61,West,271,0.0,4.0,77,0.00,,SKC,0.00,0.00,VWS V14.01,2013-09-03 07:41:00,
2013-09-03 02:46:00,74.9,66.8,29.61,West,271,0.0,2.0,76,0.00,,SKC,0.00,0.00,VWS V14.01,2013-09-03 07:46:00,
2013-09-03 02:50:00,74.9,66.8,29.61,West,271,1.0,2.0,76,0.00,,SKC,0.00,0.00,VWS V14.01,2013-09-03 07:50:00,
2013-09-03 02:51:00,74.9,66.8,29.61,West,271,1.0,2.0,76,0.00,,SKC,0.00,0.00,VWS V14.01,2013-09-03 07:51:00,
2013-09-03 02:56:00,74.9,66.8,29.61,West,271,2.0,2.0,76,0.00,,SKC,0.00,0.00,VWS V14.01,2013-09-03 07:56:00,
2013-09-03 03:00:00,74.9,66.8,29.61,West,271,0.0,4.0,76,0.00,,SKC,0.00,0.00,VWS V14.01,2013-09-03 08:00:00,
2013-09-03 03:01:00,74.9,66.8,29.61,West,271,0.0,4.0,76,0.00,,SKC,0.00,0.00,VWS V14.01,2013-09-03 08:01:00,
2013-09-03 03:06:00,74.9,66.8,29.61,West,271,0.0,2.0,76,0.00,,SKC,0.00,0.00,VWS V14.01,2013-09-03 08:06:00,
2013-09-03 03:10:00,74.9,66.8,29.61,West,271,0.0,2.0,76,0.00,,SKC,0.00,0.00,VWS V14.01,2013-09-03 08:10:00,
2013-09-03 03:11:00,74.9,66.8,29.61,West,271,0.0,2.0,76,0.00,,SKC,0.00,0.00,VWS V14.01,2013-09-03 08:11:00,
2013-09-03 03:16:00,74.9,66.8,29.61,West,271,0.0,0.0,76,0.00,,SKC,0.00,0.00,VWS V14.01,2013-09-03 08:16:00,
2013-09-03 03:20:00,74.9,66.8,29.61,West,271,0.0,0.0,76,0.00,,SKC,0.00,0.00,VWS V14.01,2013-09-03 08:20:00,
2013-09-03 03:21:00,74.9,66.8,29.61,West,271,0.0,0.0,76,0.00,,SKC,0.00,0.00,VWS V14.01,2013-09-03 08:21:00,
2013-09-03 03:26:00,74.8,66.7,29.61,West,271,0.0,0.0,76,0.00,,SKC,0.00,0.00,VWS V14.01,2013-09-03 08:26:00,
2013-09-03 03:30:00,74.8,66.7,29.61,West,271,0.0,2.0,76,0.00,,SKC,0.00,0.00,VWS V14.01,2013-09-03 08:30:00,
2013-09-03 03:31:00,74.8,66.7,29.61,West,271,0.0,2.0,76,0.00,,SKC,0.00,0.00,VWS V14.01,2013-09-03 08:31:00,
2013-09-03 03:36:00,74.8,66.7,29.61,West,271,0.0,1.0,76,0.00,,SKC,0.00,0.00,VWS V14.01,2013-09-03 08:36:00,
2013-09-03 03:40:00,74.7,67.0,29.61,West,271,0.0,2.0,77,0.00,,SKC,0.00,0.00,VWS V14.01,2013-09-03 08:40:00,
2013-09-03 03:41:00,74.8,66.7,29.61,West,271,0.0,2.0,76,0.00,,SKC,0.00,0.00,VWS V14.01,2013-09-03 08:41:00,
2013-09-03 03:46:00,74.6,66.9,29.61,West,271,2.0,2.0,77,0.00,,SKC,0.00,0.00,VWS V14.01,2013-09-03 08:46:00,
2013-09-03 03:50:00,74.6,66.9,29.61,West,271,0.0,4.0,77,0.00,,SKC,0.00,0.00,VWS V14.01,2013-09-03 08:50:00,
2013-09-03 03:51:00,74.6,66.9,29.61,West,271,0.0,4.0,77,0.00,,SKC,0.00,0.00,VWS V14.01,2013-09-03 08:51:00,
2013-09-03 03:56:00,74.5,66.8,29.61,West,271,0.0,2.0,77,0.00,,SKC,0.00,0.00,VWS V14.01,2013-09-03 08:56:00,
2013-09-03 04:00:00,74.5,66.8,29.61,West,271,0.0,2.0,77,0.00,,SKC,0.00,0.00,VWS V14.01,2013-09-03 09:00:00,
2013-09-03 04:01:00,74.5,66.8,29.61,West,271,0.0,2.0,77,0.00,,SKC,0.00,0.00,VWS V14.01,2013-09-03 09:01:00,
2013-09-03 04:06:00,74.5,66.8,29.61,West,271,0.0,2.0,77,0.00,,SKC,0.00,0.00,VWS V14.01,2013-09-03 09:06:00,
2013-09-03 04:10:00,74.5,66.8,29.61,West,271,0.0,2.0,77,0.00,,SKC,0.00,0.00,VWS V14.01,2013-09-03 09:10:00,
2013-09-03 04:11:00,74.5,66.8,29.61,West,271,0.0,2.0,77,0.00,,SKC,0.00,0.00,VWS V14.01,2013-09-03 09:11:00,
2013-09-03 04:16:00,74.5,66.8,29.61,West,271,0.0,0.0,77,0.00,,SKC,0.00,0.00,VWS V14.01,2013-09-03 09:16:00,
2013-09-03 04:20:00,74.6,66.9,29.61,West,271,0.0,0.0,77,0.00,,SKC,0.00,0.00,VWS V14.01,2013-09-03 09:20:00,
2013-09-03 04:21:00,74.6,66.9,29.61,West,271,0.0,0.0,77,0.00,,SKC,0.00,0.00,VWS V14.01,2013-09-03 09:21:00,
2013-09-03 04:26:00,74.6,66.5,29.61,West,271,1.0,2.0,76,0.00,,SKC,0.00,0.00,VWS V14.01,2013-09-03 09:26:00,
2013-09-03 04:30:00,74.6,66.5,29.61,West,271,0.0,2.0,76,0.00,,SKC,0.00,0.00,VWS V14.01,2013-09-03 09:30:00,
2013-09-03 04:31:00,74.7,66.6,29.61,West,271,0.0,2.0,76,0.00,,SKC,0.00,0.00,VWS V14.01,2013-09-03 09:31:00,
2013-09-03 04:36:00,74.8,66.3,29.61,West,271,0.0,0.0,75,0.00,,SKC,0.00,0.00,VWS V14.01,2013-09-03 09:36:00,
2013-09-03 04:40:00,74.9,66.1,29.61,West,271,1.0,2.0,74,0.00,,SKC,0.00,0.00,VWS V14.01,2013-09-03 09:40:00,
2013-09-03 04:41:00,74.9,66.1,29.61,West,271,2.0,2.0,74,0.00,,SKC,0.00,0.00,VWS V14.01,2013-09-03 09:41:00,
2013-09-03 04:46:00,75.2,66.0,29.61,West,271,0.0,1.0,73,0.00,,SKC,0.00,0.00,VWS V14.01,2013-09-03 09:46:00,
2013-09-03 04:50:00,75.4,66.2,29.61,West,271,0.0,1.0,73,0.00,,SKC,0.00,0.00,VWS V14.01,2013-09-03 09:50:00,
2013-09-03 04:51:00,75.4,66.2,29.61,West,271,0.0,1.0,73,0.00,,SKC,0.00,0.00,VWS V14.01,2013-09-03 09:51:00,
2013-09-03 04:56:00,75.5,66.2,29.61,West,271,0.0,0.0,73,0.00,,SKC,0.00,0.00,VWS V14.01,2013-09-03 09:56:00,
2013-09-03 05:00:00,75.6,65.9,29.60,West,271,0.0,0.0,72,0.00,,SKC,0.00,0.00,VWS V14.01,2013-09-03 10:00:00,
2013-09-03 05:01:00,75.7,66.0,29.60,West,271,0.0,0.0,72,0.00,,SKC,0.00,0.00,VWS V14.01,2013-09-03 10:01:00,
2013-09-03 05:06:00,75.8,66.1,29.60,West,271,0.0,0.0,72,0.00,,SKC,0.00,0.00,VWS V14.01,2013-09-03 10:06:00,
2013-09-03 05:10:00,75.9,66.2,29.60,West,271,0.0,0.0,72,0.00,,SKC,0.00,0.00,VWS V14.01,2013-09-03 10:10:00,
2013-09-03 05:11:00,75.9,66.2,29.60,West,271,0.0,0.0,72,0.00,,SKC,0.00,0.00,VWS V14.01,2013-09-03 10:11:00,
2013-09-03 05:16:00,76.0,66.3,29.60,West,271,0.0,0.0,72,0.00,,SKC,0.00,0.00,VWS V14.01,2013-09-03 10:16:00,
2013-09-03 05:20:00,76.1,66.4,29.60,West,271,0.0,0.0,72,0.00,,SKC,0.00,0.00,VWS V14.01,2013-09-03 10:20:00,
2013-09-03 05:21:00,76.0,65.9,29.60,West,271,0.0,0.0,71,0.00,,SKC,0.00,0.00,VWS V14.01,2013-09-03 10:21:00,
2013-09-03 05:26:00,76.1,66.4,29.60,West,271,0.0,0.0,72,0.00,,SKC,0.00,0.00,VWS V14.01,2013-09-03 10:26:00,
2013-09-03 05:30:00,76.1,66.0,29.60,West,271,0.0,0.0,71,0.00,,SKC,0.00,0.00,VWS V14.01,2013-09-03 10:30:00,
2013-09-03 05:31:00,76.1,66.0,29.60,West,271,0.0,0.0,71,0.00,,SKC,0.00,0.00,VWS V14.01,2013-09-03 10:31:00,
2013-09-03 05:36:00,76.2,66.1,29.61,West,271,0.0,0.0,71,0.00,,SKC,0.00,0.00,VWS V14.01,2013-09-03 10:36:00,
2013-09-03 05:40:00,76.2,66.1,29.61,West,271,0.0,0.0,71,0.00,,SKC,0.00,0.00,VWS V14.01,2013-09-03 10:40:00,
2013-09-03 05:41:00,76.2,66.1,29.61,West,271,0.0,0.0,71,0.00,,SKC,0.00,0.00,VWS V14.01,2013-09-03 10:41:00,
2013-09-03 05:46:00,76.2,66.1,29.61,West,271,2.0,2.0,71,0.00,,SKC,0.00,0.00,VWS V14.01,2013-09-03 10:46:00,
2013-09-03 05:50:00,76.2,66.1,29.61,West,271,0.0,4.0,71,0.00,,SKC,0.00,0.00,VWS V14.01,2013-09-03 10:50:00,
2013-09-03 05:51:00,76.1,66.0,29.61,West,271,0.0,4.0,71,0.00,,SKC,0.00,0.00,VWS V14.01,2013-09-03 10:51:00,
2013-09-03 05:56:00,76.1,66.4,29.61,West,271,1.0,1.0,72,0.00,,SKC,0.00,0.00,VWS V14.01,2013-09-03 10:56:00,
2013-09-03 06:00:00,75.8,66.1,29.62,West,271,4.0,6.0,72,0.00,,SKC,0.00,0.00,VWS V14.01,2013-09-03 11:00:00,
2013-09-03 06:01:00,75.8,66.1,29.62,West,271,6.0,6.0,72,0.00,,SKC,0.00,0.00,VWS V14.01,2013-09-03 11:01:00,
2013-09-03 06:06:00,75.5,66.2,29.62,West,271,0.0,6.0,73,0.00,,SKC,0.00,0.00,VWS V14.01,2013-09-03 11:06:00,
2013-09-03 06:10:00,75.3,66.1,29.62,West,271,0.0,6.0,73,0.00,,SKC,0.00,0.00,VWS V14.01,2013-09-03 11:10:00,
2013-09-03 06:11:00,75.3,66.1,29.62,West,271,0.0,6.0,73,0.00,,SKC,0.00,0.00,VWS V14.01,2013-09-03 11:11:00,
2013-09-03 06:16:00,75.1,66.2,29.62,West,271,0.0,1.0,74,0.00,,SKC,0.00,0.00,VWS V14.01,2013-09-03 11:16:00,
2013-09-03 06:20:00,74.7,66.3,29.63,West,271,0.0,2.0,75,0.00,,SKC,0.00,0.00,VWS V14.01,2013-09-03 11:20:00,
2013-09-03 06:21:00,74.8,66.3,29.63,West,271,2.0,2.0,75,0.00,,SKC,0.00,0.00,VWS V14.01,2013-09-03 11:21:00,
2013-09-03 06:26:00,74.3,66.2,29.63,West,271,0.0,0.0,76,0.00,,SKC,0.00,0.00,VWS V14.01,2013-09-03 11:26:00,
2013-09-03 06:30:00,73.8,66.2,29.63,West,271,0.0,0.0,77,0.00,,SKC,0.00,0.00,VWS V14.01,2013-09-03 11:30:00,
2013-09-03 06:31:00,73.9,66.2,29.63,West,271,0.0,0.0,77,0.00,,SKC,0.00,0.00,VWS V14.01,2013-09-03 11:31:00,
2013-09-03 06:36:00,73.5,66.2,29.63,West,271,0.0,0.0,78,0.00,,SKC,0.00,0.00,VWS V14.01,2013-09-03 11:36:00,
2013-09-03 06:40:00,73.1,65.8,29.63,West,271,0.0,0.0,78,0.00,,SKC,0.00,0.00,VWS V14.01,2013-09-03 11:40:00,
2013-09-03 06:41:00,73.1,65.8,29.63,West,271,0.0,0.0,78,0.00,,SKC,0.00,0.00,VWS V14.01,2013-09-03 11:41:00,
2013-09-03 06:46:00,72.9,66.0,29.63,West,271,0.0,0.0,79,0.00,,SKC,0.00,0.00,VWS V14.01,2013-09-03 11:46:00,
2013-09-03 06:50:00,72.7,66.2,29.63,West,271,0.0,0.0,80,0.00,,SKC,0.00,0.00,VWS V14.01,2013-09-03 11:50:00,
2013-09-03 06:51:00,72.7,66.2,29.63,West,271,0.0,0.0,80,0.00,,SKC,0.00,0.00,VWS V14.01,2013-09-03 11:51:00,
2013-09-03 06:56:00,72.6,66.1,29.64,West,271,0.0,0.0,80,0.00,,SKC,0.00,0.00,VWS V14.01,2013-09-03 11:56:00,
2013-09-03 07:00:00,72.5,66.0,29.64,West,271,0.0,0.0,80,0.00,,SKC,0.00,0.00,VWS V14.01,2013-09-03 12:00:00,
2013-09-03 07:01:00,72.5,66.0,29.64,West,271,0.0,0.0,80,0.00,,SKC,0.00,0.00,VWS V14.01,2013-09-03 12:01:00,
2013-09-03 07:06:00,72.5,66.0,29.64,West,271,0.0,4.0,80,0.00,,SKC,0.00,0.00,VWS V14.01,2013-09-03 12:06:00,
2013-09-03 07:10:00,72.4,65.9,29.64,West,271,0.0,4.0,80,0.00,,SKC,0.00,0.00,VWS V14.01,2013-09-03 12:10:00,
2013-09-03 07:11:00,72.4,65.9,29.64,West,271,0.0,4.0,80,0.00,,SKC,0.00,0.00,VWS V14.01,2013-09-03 12:11:00,
2013-09-03 07:16:00,72.5,66.3,29.64,West,271,1.0,4.0,81,0.00,,SKC,0.00,5.00,VWS V14.01,2013-09-03 12:16:00,
2013-09-03 07:20:00,72.6,66.1,29.64,West,271,1.0,4.0,80,0.00,,SKC,0.00,9.00,VWS V14.01,2013-09-03 12:20:00,
2013-09-03 07:21:00,72.6,66.1,29.64,West,271,0.0,4.0,80,0.00,,SKC,0.00,9.00,VWS V14.01,2013-09-03 12:21:00,
2013-09-03 07:26:00,72.6,66.1,29.64,West,271,0.0,1.0,80,0.00,,SKC,0.00,11.00,VWS V14.01,2013-09-03 12:26:00,
2013-09-03 07:30:00,72.6,66.1,29.64,West,271,0.0,1.0,80,0.00,,SKC,0.00,14.00,VWS V14.01,2013-09-03 12:30:00,
2013-09-03 07:31:00,72.6,66.1,29.64,West,271,0.0,1.0,80,0.00,,SKC,0.00,14.00,VWS V14.01,2013-09-03 12:31:00,
2013-09-03 07:36:00,72.6,65.7,29.64,West,271,0.0,0.0,79,0.00,,SKC,0.00,18.00,VWS V14.01,2013-09-03 12:36:00,
2013-09-03 07:40:00,72.5,66.0,29.64,West,271,0.0,0.0,80,0.00,,SKC,0.00,21.00,VWS V14.01,2013-09-03 12:40:00,
2013-09-03 07:41:00,72.5,66.0,29.64,West,271,0.0,0.0,80,0.00,,SKC,0.00,21.00,VWS V14.01,2013-09-03 12:41:00,
2013-09-03 07:46:00,72.4,65.9,29.64,West,271,0.0,0.0,80,0.00,,SKC,0.00,25.00,VWS V14.01,2013-09-03 12:46:00,
2013-09-03 07:50:00,72.3,66.2,29.65,West,271,0.0,0.0,81,0.00,,SKC,0.00,28.00,VWS V14.01,2013-09-03 12:50:00,
2013-09-03 07:51:00,72.3,66.2,29.65,West,271,0.0,0.0,81,0.00,,SKC,0.00,28.00,VWS V14.01,2013-09-03 12:51:00,
2013-09-03 07:56:00,72.2,66.1,29.65,West,271,0.0,0.0,81,0.00,,SKC,0.00,32.00,VWS V14.01,2013-09-03 12:56:00,
2013-09-03 08:00:00,72.1,65.9,29.65,West,271,0.0,0.0,81,0.00,,SKC,0.00,37.00,VWS V14.01,2013-09-03 13:00:00,
2013-09-03 08:01:00,72.2,66.1,29.65,West,271,0.0,0.0,81,0.00,,SKC,0.00,37.00,VWS V14.01,2013-09-03 13:01:00,
2013-09-03 08:06:00,72.1,66.3,29.66,West,271,0.0,0.0,82,0.00,,SKC,0.00,67.00,VWS V14.01,2013-09-03 13:06:00,
2013-09-03 08:10:00,72.1,66.3,29.66,West,271,0.0,0.0,82,0.00,,SKC,0.00,76.00,VWS V14.01,2013-09-03 13:10:00,
2013-09-03 08:11:00,72.1,66.3,29.66,West,271,0.0,0.0,82,0.00,,SKC,0.00,76.00,VWS V14.01,2013-09-03 13:11:00,
2013-09-03 08:16:00,72.1,66.3,29.66,West,271,0.0,0.0,82,0.00,,SKC,0.00,81.00,VWS V14.01,2013-09-03 13:16:00,
2013-09-03 08:20:00,72.3,66.8,29.67,West,271,0.0,0.0,83,0.00,,SKC,0.00,114.00,VWS V14.01,2013-09-03 13:20:00,
2013-09-03 08:21:00,72.3,66.8,29.67,West,271,0.0,0.0,83,0.00,,SKC,0.00,105.00,VWS V14.01,2013-09-03 13:21:00,
2013-09-03 08:26:00,72.4,66.9,29.66,West,271,0.0,0.0,83,0.00,,SKC,0.00,116.00,VWS V14.01,2013-09-03 13:26:00,
2013-09-03 08:30:00,72.6,66.8,29.67,West,271,0.0,0.0,82,0.00,,SKC,0.00,144.00,VWS V14.01,2013-09-03 13:30:00,
2013-09-03 08:31:00,72.6,66.8,29.67,West,271,0.0,0.0,82,0.00,,SKC,0.00,121.00,VWS V14.01,2013-09-03 13:31:00,
2013-09-03 08:36:00,72.9,67.1,29.67,West,271,0.0,0.0,82,0.00,,SKC,0.00,153.00,VWS V14.01,2013-09-03 13:36:00,
2013-09-03 08:40:00,73.3,67.1,29.67,West,271,0.0,0.0,81,0.00,,SKC,0.00,209.00,VWS V14.01,2013-09-03 13:40:00,
2013-09-03 08:41:00,73.2,67.0,29.67,West,271,0.0,0.0,81,0.00,,SKC,0.00,209.00,VWS V14.01,2013-09-03 13:41:00,
2013-09-03 08:46:00,73.7,67.2,29.67,West,271,0.0,0.0,80,0.00,,SKC,0.00,230.00,VWS V14.01,2013-09-03 13:46:00,
2013-09-03 08:50:00,74.2,67.3,29.67,West,271,0.0,0.0,79,0.00,,SKC,0.00,253.00,VWS V14.01,2013-09-03 13:50:00,
2013-09-03 08:51:00,74.2,67.3,29.67,West,271,0.0,0.0,79,0.00,,SKC,0.00,250.00,VWS V14.01,2013-09-03 13:51:00,
2013-09-03 08:56:00,74.8,67.5,29.67,West,271,0.0,0.0,78,0.00,,SKC,0.00,267.00,VWS V14.01,2013-09-03 13:56:00,
2013-09-03 09:00:00,75.4,67.3,29.67,West,271,0.0,2.0,76,0.00,,SKC,0.00,292.00,VWS V14.01,2013-09-03 14:00:00,
2013-09-03 09:01:00,75.4,67.3,29.67,West,271,0.0,2.0,76,0.00,,SKC,0.00,288.00,VWS V14.01,2013-09-03 14:01:00,
2013-09-03 09:06:00,75.9,67.4,29.67,West,271,5.0,5.0,75,0.00,,SKC,0.00,304.00,VWS V14.01,2013-09-03 14:06:00,
2013-09-03 09:10:00,76.5,67.6,29.68,West,271,2.0,5.0,74,0.00,,SKC,0.00,322.00,VWS V14.01,2013-09-03 14:10:00,
2013-09-03 09:11:00,76.4,67.5,29.68,West,271,0.0,5.0,74,0.00,,SKC,0.00,318.00,VWS V14.01,2013-09-03 14:11:00,
2013-09-03 09:16:00,76.9,67.6,29.68,West,271,4.0,4.0,73,0.00,,SKC,0.00,332.00,VWS V14.01,2013-09-03 14:16:00,
2013-09-03 09:20:00,77.5,67.4,29.68,West,271,0.0,5.0,71,0.00,,SKC,0.00,352.00,VWS V14.01,2013-09-03 14:20:00,
2013-09-03 09:21:00,77.4,67.3,29.69,West,271,4.0,5.0,71,0.00,,SKC,0.00,352.00,VWS V14.01,2013-09-03 14:21:00,
2013-09-03 09:26:00,78.0,67.4,29.68,West,271,7.0,7.0,70,0.00,,SKC,0.00,367.00,VWS V14.01,2013-09-03 14:26:00,
2013-09-03 09:30:00,78.6,67.6,29.69,West,271,1.0,7.0,69,0.00,,SKC,0.00,404.00,VWS V14.01,2013-09-03 14:30:00,
2013-09-03 09:31:00,78.5,67.5,29.69,West,271,5.0,7.0,69,0.00,,SKC,0.00,396.00,VWS V14.01,2013-09-03 14:31:00,
2013-09-03 09:36:00,79.0,68.0,29.68,West,271,2.0,5.0,69,0.00,,SKC,0.00,417.00,VWS V14.01,2013-09-03 14:36:00,
2013-09-03 09:40:00,79.6,67.7,29.69,West,271,2.0,7.0,67,0.00,,SKC,0.00,439.00,VWS V14.01,2013-09-03 14:40:00,
2013-09-03 09:41:00,79.6,68.1,29.69,West,271,4.0,7.0,68,0.00,,SKC,0.00,432.00,VWS V14.01,2013-09-03 14:41:00,
2013-09-03 09:46:00,80.0,67.6,29.69,West,271,5.0,6.0,66,0.00,,SKC,0.00,461.00,VWS V14.01,2013-09-03 14:46:00,
2013-09-03 09:50:00,80.5,67.7,29.69,West,271,4.0,9.0,65,0.00,,SKC,0.00,461.00,VWS V14.01,2013-09-03 14:50:00,
2013-09-03 09:51:00,80.4,68.0,29.69,West,271,5.0,9.0,66,0.00,,SKC,0.00,461.00,VWS V14.01,2013-09-03 14:51:00,
2013-09-03 09:56:00,80.9,68.0,29.69,West,271,4.0,6.0,65,0.00,,SKC,0.00,473.00,VWS V14.01,2013-09-03 14:56:00,
2013-09-03 10:00:00,81.4,68.1,29.70,West,271,4.0,11.0,64,0.00,,SKC,0.00,483.00,VWS V14.01,2013-09-03 15:00:00,
2013-09-03 10:01:00,81.4,68.1,29.70,West,271,5.0,11.0,64,0.00,,SKC,0.00,482.00,VWS V14.01,2013-09-03 15:01:00,
2013-09-03 10:06:00,81.7,67.9,29.69,West,271,5.0,11.0,63,0.00,,SKC,0.00,503.00,VWS V14.01,2013-09-03 15:06:00,
2013-09-03 10:10:00,82.1,67.8,29.69,West,271,5.0,11.0,62,0.00,,SKC,0.00,522.00,VWS V14.01,2013-09-03 15:10:00,
2013-09-03 10:11:00,82.0,68.2,29.69,West,271,2.0,11.0,63,0.00,,SKC,0.00,520.00,VWS V14.01,2013-09-03 15:11:00,
2013-09-03 10:16:00,82.4,68.1,29.69,West,271,4.0,7.0,62,0.00,,SKC,0.00,534.00,VWS V14.01,2013-09-03 15:16:00,
2013-09-03 10:20:00,82.8,67.5,29.69,West,271,4.0,7.0,60,0.00,,SKC,0.00,552.00,VWS V14.01,2013-09-03 15:20:00,
2013-09-03 10:21:00,82.8,68.0,29.69,West,271,1.0,7.0,61,0.00,,SKC,0.00,552.00,VWS V14.01,2013-09-03 15:21:00,
2013-09-03 10:26:00,83.2,67.9,29.70,West,271,4.0,6.0,60,0.00,,SKC,0.00,570.00,VWS V14.01,2013-09-03 15:26:00,
2013-09-03 10:30:00,83.9,67.6,29.70,West,271,2.0,7.0,58,0.00,,SKC,0.00,577.00,VWS V14.01,2013-09-03 15:30:00,
2013-09-03 10:31:00,83.9,67.6,29.70,West,271,5.0,7.0,58,0.00,,SKC,0.00,577.00,VWS V14.01,2013-09-03 15:31:00,
2013-09-03 10:36:00,84.5,67.6,29.70,West,271,0.0,9.0,57,0.00,,SKC,0.00,598.00,VWS V14.01,2013-09-03 15:36:00,
2013-09-03 10:40:00,85.0,67.6,29.70,West,271,5.0,9.0,56,0.00,,SKC,0.00,610.00,VWS V14.01,2013-09-03 15:40:00,
2013-09-03 10:41:00,85.0,67.6,29.70,West,271,1.0,9.0,56,0.00,,SKC,0.00,605.00,VWS V14.01,2013-09-03 15:41:00,
2013-09-03 10:46:00,85.4,67.9,29.70,West,271,0.0,6.0,56,0.00,,SKC,0.00,629.00,VWS V14.01,2013-09-03 15:46:00,
2013-09-03 10:50:00,86.3,67.7,29.70,West,271,1.0,11.0,54,0.00,,SKC,0.00,636.00,VWS V14.01,2013-09-03 15:50:00,
2013-09-03 10:51:00,86.3,67.7,29.70,West,271,5.0,11.0,54,0.00,,SKC,0.00,638.00,VWS V14.01,2013-09-03 15:51:00,
2013-09-03 10:56:00,86.7,67.0,29.70,West,271,7.0,7.0,52,0.00,,SKC,0.00,652.00,VWS V14.01,2013-09-03 15:56:00,
2013-09-03 11:00:00,86.9,67.2,29.70,West,271,5.0,8.0,52,0.00,,SKC,0.00,666.00,VWS V14.01,2013-09-03 16:00:00,
2013-09-03 11:01:00,86.9,67.2,29.70,West,271,7.0,8.0,52,0.00,,SKC,0.00,666.00,VWS V14.01,2013-09-03 16:01:00,
2013-09-03 11:06:00,87.3,67.5,29.70,West,271,2.0,6.0,52,0.00,,SKC,0.00,657.00,VWS V14.01,2013-09-03 16:06:00,
2013-09-03 11:10:00,87.7,67.3,29.69,West,271,2.0,6.0,51,0.00,,SKC,0.00,698.00,VWS V14.01,2013-09-03 16:10:00,
2013-09-03 11:11:00,87.7,67.3,29.69,West,271,1.0,6.0,51,0.00,,SKC,0.00,693.00,VWS V14.01,2013-09-03 16:11:00,
2013-09-03 11:16:00,88.1,67.7,29.69,West,271,6.0,6.0,51,0.00,,SKC,0.00,707.00,VWS V14.01,2013-09-03 16:16:00,
2013-09-03 11:20:00,89.1,68.1,29.70,West,271,1.0,8.0,50,0.00,,SKC,0.00,714.00,VWS V14.01,2013-09-03 16:20:00,
2013-09-03 11:21:00,89.0,68.0,29.70,West,271,5.0,8.0,50,0.00,,SKC,0.00,705.00,VWS V14.01,2013-09-03 16:21:00,
2013-09-03 11:26:00,89.5,67.2,29.69,West,271,2.0,4.0,48,0.00,,SKC,0.00,728.00,VWS V14.01,2013-09-03 16:26:00,
2013-09-03 11:30:00,90.1,67.2,29.69,West,271,4.0,9.0,47,0.00,,SKC,0.00,742.00,VWS V14.01,2013-09-03 16:30:00,
2013-09-03 11:31:00,90.1,67.8,29.69,West,271,7.0,9.0,48,0.00,,SKC,0.00,742.00,VWS V14.01,2013-09-03 16:31:00,
2013-09-03 11:36:00,90.4,66.8,29.69,West,271,4.0,4.0,46,0.00,,SKC,0.00,751.00,VWS V14.01,2013-09-03 16:36:00,
2013-09-03 11:40:00,90.8,66.6,29.69,West,271,5.0,8.0,45,0.00,,SKC,0.00,766.00,VWS V14.01,2013-09-03 16:40:00,
2013-09-03 11:41:00,90.8,67.2,29.69,West,271,0.0,8.0,46,0.00,,SKC,0.00,766.00,VWS V14.01,2013-09-03 16:41:00,
2013-09-03 11:46:00,91.0,66.7,29.69,West,271,1.0,5.0,45,0.00,,SKC,0.00,770.00,VWS V14.01,2013-09-03 16:46:00,
2013-09-03 11:50:00,91.5,65.9,29.69,West,271,8.0,8.0,43,0.00,,SKC,0.00,786.00,VWS V14.01,2013-09-03 16:50:00,
2013-09-03 11:51:00,91.5,65.9,29.69,West,271,4.0,7.0,43,0.00,,SKC,0.00,786.00,VWS V14.01,2013-09-03 16:51:00,
2013-09-03 11:56:00,91.5,65.9,29.69,West,271,2.0,8.0,43,0.00,,SKC,0.00,795.00,VWS V14.01,2013-09-03 16:56:00,
2013-09-03 12:00:00,91.6,66.0,29.68,West,271,2.0,8.0,43,0.00,,SKC,0.00,803.00,VWS V14.01,2013-09-03 17:00:00,
2013-09-03 12:01:00,91.6,66.0,29.68,West,271,2.0,8.0,43,0.00,,SKC,0.00,800.00,VWS V14.01,2013-09-03 17:01:00,
2013-09-03 12:06:00,91.7,65.4,29.68,West,271,5.0,7.0,42,0.00,,SKC,0.00,809.00,VWS V14.01,2013-09-03 17:06:00,
2013-09-03 12:10:00,91.9,65.6,29.68,West,271,1.0,8.0,42,0.00,,SKC,0.00,807.00,VWS V14.01,2013-09-03 17:10:00,
2013-09-03 12:11:00,91.9,65.6,29.68,West,271,6.0,8.0,42,0.00,,SKC,0.00,807.00,VWS V14.01,2013-09-03 17:11:00,
2013-09-03 12:16:00,92.0,64.9,29.68,West,271,4.0,7.0,41,0.00,,SKC,0.00,828.00,VWS V14.01,2013-09-03 17:16:00,
2013-09-03 12:20:00,92.3,65.2,29.68,West,271,0.0,8.0,41,0.00,,SKC,0.00,842.00,VWS V14.01,2013-09-03 17:20:00,
2013-09-03 12:21:00,92.3,65.2,29.68,West,271,0.0,8.0,41,0.00,,SKC,0.00,840.00,VWS V14.01,2013-09-03 17:21:00,
2013-09-03 12:26:00,92.9,65.0,29.68,West,271,5.0,6.0,40,0.00,,SKC,0.00,854.00,VWS V14.01,2013-09-03 17:26:00,
2013-09-03 12:30:00,93.5,64.8,29.68,West,271,6.0,8.0,39,0.00,,SKC,0.00,856.00,VWS V14.01,2013-09-03 17:30:00,
2013-09-03 12:31:00,93.5,64.8,29.68,West,271,4.0,8.0,39,0.00,,SKC,0.00,856.00,VWS V14.01,2013-09-03 17:31:00,
2013-09-03 12:36:00,93.6,64.2,29.68,West,271,7.0,8.0,38,0.00,,SKC,0.00,881.00,VWS V14.01,2013-09-03 17:36:00,
2013-09-03 12:40:00,93.8,64.4,29.67,West,271,0.0,8.0,38,0.00,,SKC,0.00,888.00,VWS V14.01,2013-09-03 17:40:00,
2013-09-03 12:41:00,93.8,64.4,29.67,West,271,0.0,8.0,38,0.00,,SKC,0.00,935.00,VWS V14.01,2013-09-03 17:41:00,
2013-09-03 12:46:00,93.9,65.2,29.67,West,271,7.0,7.0,39,0.00,,SKC,0.00,267.00,VWS V14.01,2013-09-03 17:46:00,
2013-09-03 12:50:00,93.5,64.8,29.67,West,271,1.0,7.0,39,0.00,,SKC,0.00,308.00,VWS V14.01,2013-09-03 17:50:00,
2013-09-03 12:51:00,93.6,64.9,29.67,West,271,1.0,7.0,39,0.00,,SKC,0.00,322.00,VWS V14.01,2013-09-03 17:51:00,
2013-09-03 12:56:00,93.3,64.7,29.67,West,271,2.0,5.0,39,0.00,,SKC,0.00,638.00,VWS V14.01,2013-09-03 17:56:00,
2013-09-03 13:00:00,93.0,63.7,29.66,SW,229,0.0,10.0,38,0.00,,SKC,0.00,279.00,VWS V14.01,2013-09-03 18:00:00,
2013-09-03 13:01:00,93.0,63.7,29.66,SW,229,5.0,10.0,38,0.00,,SKC,0.00,279.00,VWS V14.01,2013-09-03 18:01:00,
2013-09-03 13:06:00,93.0,64.4,29.66,SW,229,1.0,4.0,39,0.00,,SKC,0.00,1021.00,VWS V14.01,2013-09-03 18:06:00,
2013-09-03 13:10:00,93.4,64.0,29.66,SW,229,4.0,6.0,38,0.00,,SKC,0.00,229.00,VWS V14.01,2013-09-03 18:10:00,
2013-09-03 13:11:00,93.4,64.0,29.66,SW,229,4.0,6.0,38,0.00,,SKC,0.00,1021.00,VWS V14.01,2013-09-03 18:11:00,
2013-09-03 13:16:00,93.4,64.0,29.66,SW,229,2.0,10.0,38,0.00,,SKC,0.00,200.00,VWS V14.01,2013-09-03 18:16:00,
2013-09-03 13:20:00,93.1,63.8,29.65,SW,229,3.0,10.0,38,0.00,,SKC,0.00,220.00,VWS V14.01,2013-09-03 18:20:00,
2013-09-03 13:21:00,93.1,63.8,29.66,SW,229,0.0,10.0,38,0.00,,SKC,0.00,220.00,VWS V14.01,2013-09-03 18:21:00,
2013-09-03 13:25:00,93.2,63.8,29.65,SW,229,1.0,5.0,38,0.00,,SKC,0.00,250.00,VWS V14.01,2013-09-03 18:25:00,
2013-09-03 13:30:00,93.1,63.8,29.65,SW,229,5.0,7.0,38,0.00,,SKC,0.00,323.00,VWS V14.01,2013-09-03 18:30:00,
2013-09-03 13:35:00,93.4,64.0,29.65,SW,229,3.0,11.0,38,0.00,,SKC,0.00,1013.00,VWS V14.01,2013-09-03 18:35:00,
2013-09-03 13:40:00,93.9,62.9,29.65,SW,229,0.0,11.0,36,0.00,,SKC,0.00,272.00,VWS V14.01,2013-09-03 18:40:00,
2013-09-03 13:45:00,94.3,63.3,29.65,SW,229,5.0,7.0,36,0.00,,SKC,0.00,1056.00,VWS V14.01,2013-09-03 18:45:00,
2013-09-03 13:50:00,94.6,63.5,29.65,SW,229,4.0,7.0,36,0.00,,SKC,0.00,1067.00,VWS V14.01,2013-09-03 18:50:00,
2013-09-03 13:55:00,94.9,63.0,29.64,SW,229,4.0,10.0,35,0.00,,SKC,0.00,301.00,VWS V14.01,2013-09-03 18:55:00,
2013-09-03 14:00:00,94.7,63.6,29.64,SW,229,0.0,10.0,36,0.00,,SKC,0.00,1085.00,VWS V14.01,2013-09-03 19:00:00,
2013-09-03 14:05:00,95.1,63.2,29.64,SW,229,2.0,8.0,35,0.00,,SKC,0.00,1083.00,VWS V14.01,2013-09-03 19:05:00,
2013-09-03 14:10:00,95.4,62.6,29.63,SW,229,3.0,8.0,34,0.00,,SKC,0.00,1058.00,VWS V14.01,2013-09-03 19:10:00,
2013-09-03 14:15:00,95.6,62.8,29.63,SW,229,0.0,5.0,34,0.00,,SKC,0.00,1021.00,VWS V14.01,2013-09-03 19:15:00,
2013-09-03 14:20:00,96.1,63.2,29.63,SW,229,4.0,6.0,34,0.00,,SKC,0.00,1020.00,VWS V14.01,2013-09-03 19:20:00,
2013-09-03 14:25:00,96.5,63.6,29.62,SW,229,5.0,11.0,34,0.00,,SKC,0.00,258.00,VWS V14.01,2013-09-03 19:25:00,
2013-09-03 14:30:00,96.3,63.4,29.63,SW,227,3.0,12.0,34,0.00,,SKC,0.00,812.00,VWS V14.01,2013-09-03 19:30:00,
2013-09-03 14:35:00,96.5,63.6,29.61,SW,223,2.0,10.0,34,0.00,,SKC,0.00,1005.00,VWS V14.01,2013-09-03 19:35:00,
2013-09-03 14:40:00,96.7,63.7,29.62,SSW,211,3.0,10.0,34,0.00,,SKC,0.00,995.00,VWS V14.01,2013-09-03 19:40:00,
2013-09-03 14:45:00,96.7,63.7,29.61,SSW,211,5.0,7.0,34,0.00,,SKC,0.00,353.00,VWS V14.01,2013-09-03 19:45:00,
2013-09-03 14:50:00,96.3,64.2,29.60,South,187,10.0,13.0,35,0.00,,SKC,0.00,923.00,VWS V14.01,2013-09-03 19:50:00,
2013-09-03 14:55:00,96.2,63.3,29.61,South,184,5.0,11.0,34,0.00,,SKC,0.00,923.00,VWS V14.01,2013-09-03 19:55:00,
2013-09-03 15:00:00,96.5,63.6,29.60,South,180,3.0,11.0,34,0.00,,SKC,0.00,916.00,VWS V14.01,2013-09-03 20:00:00,
2013-09-03 15:05:00,96.5,63.6,29.60,South,180,0.0,9.0,34,0.00,,SKC,0.00,889.00,VWS V14.01,2013-09-03 20:05:00,
2013-09-03 15:10:00,97.1,64.1,29.60,South,180,7.0,12.0,34,0.00,,SKC,0.00,872.00,VWS V14.01,2013-09-03 20:10:00,
2013-09-03 15:15:00,97.1,64.1,29.60,South,178,8.0,10.0,34,0.00,,SKC,0.00,865.00,VWS V14.01,2013-09-03 20:15:00,
2013-09-03 15:20:00,97.3,63.4,29.59,South,178,0.0,10.0,33,0.00,,SKC,0.00,861.00,VWS V14.01,2013-09-03 20:20:00,
2013-09-03 15:25:00,97.6,63.7,29.59,South,178,10.0,11.0,33,0.00,,SKC,0.00,875.00,VWS V14.01,2013-09-03 20:25:00,
2013-09-03 15:30:00,97.6,63.7,29.58,South,178,0.0,11.0,33,0.00,,SKC,0.00,865.00,VWS V14.01,2013-09-03 20:30:00,
2013-09-03 15:35:00,98.0,64.0,29.58,South,178,9.0,11.0,33,0.00,,SKC,0.00,865.00,VWS V14.01,2013-09-03 20:35:00,
2013-09-03 15:40:00,97.8,63.8,29.58,South,178,4.0,11.0,33,0.00,,SKC,0.00,758.00,VWS V14.01,2013-09-03 20:40:00,
2013-09-03 15:45:00,97.6,62.8,29.58,South,178,6.0,10.0,32,0.00,,SKC,0.00,244.00,VWS V14.01,2013-09-03 20:45:00,
2013-09-03 15:50:00,96.6,62.8,29.57,South,178,6.0,10.0,33,0.00,,SKC,0.00,364.00,VWS V14.01,2013-09-03 20:50:00,
2013-09-03 15:55:00,96.2,62.5,29.57,South,178,4.0,6.0,33,0.00,,SKC,0.00,271.00,VWS V14.01,2013-09-03 20:55:00,
2013-09-03 16:00:00,96.3,63.4,29.57,South,178,4.0,9.0,34,0.00,,SKC,0.00,877.00,VWS V14.01,2013-09-03 21:00:00,
2013-09-03 16:05:00,96.7,62.9,29.57,South,178,5.0,11.0,33,0.00,,SKC,0.00,877.00,VWS V14.01,2013-09-03 21:05:00,
2013-09-03 16:10:00,96.7,62.9,29.56,South,178,6.0,11.0,33,0.00,,SKC,0.00,287.00,VWS V14.01,2013-09-03 21:10:00,
2013-09-03 16:15:00,96.4,62.6,29.56,South,178,6.0,8.0,33,0.00,,SKC,0.00,761.00,VWS V14.01,2013-09-03 21:15:00,
2013-09-03 16:20:00,96.5,61.8,29.56,South,178,6.0,9.0,32,0.00,,SKC,0.00,290.00,VWS V14.01,2013-09-03 21:20:00,
2013-09-03 16:25:00,96.2,62.5,29.55,South,178,4.0,7.0,33,0.00,,SKC,0.00,299.00,VWS V14.01,2013-09-03 21:25:00,
2013-09-03 16:30:00,95.9,62.2,29.56,South,178,4.0,7.0,33,0.00,,SKC,0.00,262.00,VWS V14.01,2013-09-03 21:30:00,
2013-09-03 16:31:00,95.9,62.2,29.55,South,178,0.0,7.0,33,0.00,,SKC,0.00,287.00,VWS V14.01,2013-09-03 21:31:00,
2013-09-03 16:36:00,95.9,62.2,29.56,South,178,5.0,7.0,33,0.00,,SKC,0.00,209.00,VWS V14.01,2013-09-03 21:36:00,
2013-09-03 16:40:00,95.5,61.8,29.55,South,178,0.0,7.0,33,0.00,,SKC,0.00,153.00,VWS V14.01,2013-09-03 21:40:00,
2013-09-03 16:45:00,95.4,62.6,29.55,South,178,0.0,4.0,34,0.00,,SKC,0.00,139.00,VWS V14.01,2013-09-03 21:45:00,
2013-09-03 16:50:00,95.4,62.6,29.55,South,178,4.0,4.0,34,0.00,,SKC,0.00,605.00,VWS V14.01,2013-09-03 21:50:00,
2013-09-03 16:51:00,95.4,62.6,29.55,South,178,0.0,4.0,34,0.00,,SKC,0.00,171.00,VWS V14.01,2013-09-03 21:51:00,
2013-09-03 16:56:00,95.8,63.0,29.55,South,178,5.0,7.0,34,0.00,,SKC,0.00,737.00,VWS V14.01,2013-09-03 21:56:00,
2013-09-03 17:00:00,96.6,62.8,29.55,South,178,4.0,7.0,33,0.00,,SKC,0.00,737.00,VWS V14.01,2013-09-03 22:00:00,
2013-09-03 17:01:00,96.5,62.7,29.55,South,178,2.0,7.0,33,0.00,,SKC,0.00,737.00,VWS V14.01,2013-09-03 22:01:00,
2013-09-03 17:06:00,97.5,65.3,29.56,South,178,0.0,8.0,35,0.00,,SKC,0.00,700.00,VWS V14.01,2013-09-03 22:06:00,
2013-09-03 17:10:00,98.3,64.3,29.55,South,178,5.0,9.0,33,0.00,,SKC,0.00,582.00,VWS V14.01,2013-09-03 22:10:00,
2013-09-03 17:11:00,98.2,64.2,29.55,South,178,2.0,9.0,33,0.00,,SKC,0.00,582.00,VWS V14.01,2013-09-03 22:11:00,
2013-09-03 17:16:00,98.1,64.1,29.55,South,178,8.0,8.0,33,0.00,,SKC,0.00,95.00,VWS V14.01,2013-09-03 22:16:00,
2013-09-03 17:20:00,97.1,64.1,29.55,South,178,0.0,11.0,34,0.00,,SKC,0.00,97.00,VWS V14.01,2013-09-03 22:20:00,
2013-09-03 17:21:00,97.2,64.2,29.55,South,178,4.0,11.0,34,0.00,,SKC,0.00,97.00,VWS V14.01,2013-09-03 22:21:00,
2013-09-03 17:26:00,96.5,64.4,29.54,South,178,6.0,8.0,35,0.00,,SKC,0.00,121.00,VWS V14.01,2013-09-03 22:26:00,
2013-09-03 17:30:00,95.8,64.6,29.54,South,178,6.0,9.0,36,0.00,,SKC,0.00,125.00,VWS V14.01,2013-09-03 22:30:00,
2013-09-03 17:31:00,95.8,64.6,29.54,South,178,5.0,9.0,36,0.00,,SKC,0.00,130.00,VWS V14.01,2013-09-03 22:31:00,
2013-09-03 17:36:00,95.2,64.1,29.54,South,178,5.0,9.0,36,0.00,,SKC,0.00,88.00,VWS V14.01,2013-09-03 22:36:00,
2013-09-03 17:40:00,94.6,63.5,29.54,South,178,5.0,9.0,36,0.00,,SKC,0.00,86.00,VWS V14.01,2013-09-03 22:40:00,
2013-09-03 17:41:00,94.7,63.6,29.54,South,178,8.0,9.0,36,0.00,,SKC,0.00,88.00,VWS V14.01,2013-09-03 22:41:00,
2013-09-03 17:46:00,94.3,63.3,29.55,South,178,5.0,6.0,36,0.00,,SKC,0.00,86.00,VWS V14.01,2013-09-03 22:46:00,
2013-09-03 17:50:00,94.2,63.2,29.55,South,178,5.0,6.0,36,0.00,,SKC,0.00,162.00,VWS V14.01,2013-09-03 22:50:00,
2013-09-03 17:51:00,94.2,63.2,29.55,South,178,4.0,6.0,36,0.00,,SKC,0.00,162.00,VWS V14.01,2013-09-03 22:51:00,
2013-09-03 17:56:00,94.2,63.2,29.55,South,178,0.0,9.0,36,0.00,,SKC,0.00,111.00,VWS V14.01,2013-09-03 22:56:00,
2013-09-03 18:00:00,94.2,63.2,29.54,South,178,1.0,9.0,36,0.00,,SKC,0.00,81.00,VWS V14.01,2013-09-03 23:00:00,
2013-09-03 18:01:00,94.2,63.2,29.54,South,178,1.0,9.0,36,0.00,,SKC,0.00,81.00,VWS V14.01,2013-09-03 23:01:00,
2013-09-03 18:06:00,94.3,63.3,29.54,South,178,0.0,4.0,36,0.00,,SKC,0.00,76.00,VWS V14.01,2013-09-03 23:06:00,
2013-09-03 18:10:00,94.2,64.0,29.54,South,178,7.0,7.0,37,0.00,,SKC,0.00,76.00,VWS V14.01,2013-09-03 23:10:00,
2013-09-03 18:11:00,94.2,64.0,29.54,South,178,4.0,6.0,37,0.00,,SKC,0.00,76.00,VWS V14.01,2013-09-03 23:11:00,
2013-09-03 18:16:00,93.9,64.5,29.55,South,178,8.0,9.0,38,0.00,,SKC,0.00,69.00,VWS V14.01,2013-09-03 23:16:00,
2013-09-03 18:20:00,93.5,64.8,29.56,SSW,207,8.0,15.0,39,0.00,,SKC,0.00,47.00,VWS V14.01,2013-09-03 23:20:00,
2013-09-03 18:21:00,93.6,64.2,29.56,SSW,200,15.0,15.0,38,0.00,,SKC,0.00,47.00,VWS V14.01,2013-09-03 23:21:00,
2013-09-03 18:26:00,92.8,65.7,29.56,SSW,208,2.0,10.0,41,0.00,,SKC,0.00,39.00,VWS V14.01,2013-09-03 23:26:00,
2013-09-03 18:30:00,91.9,66.2,29.56,SSW,208,6.0,10.0,43,0.00,,SKC,0.00,37.00,VWS V14.01,2013-09-03 23:30:00,
2013-09-03 18:31:00,92.0,65.6,29.56,SSW,208,7.0,10.0,42,0.00,,SKC,0.00,37.00,VWS V14.01,2013-09-03 23:31:00,
2013-09-03 18:36:00,91.2,65.6,29.56,SSW,208,4.0,8.0,43,0.00,,SKC,0.00,35.00,VWS V14.01,2013-09-03 23:36:00,
2013-09-03 18:40:00,90.4,65.5,29.56,SSW,208,4.0,9.0,44,0.00,,SKC,0.00,30.00,VWS V14.01,2013-09-03 23:40:00,
2013-09-03 18:41:00,90.5,65.6,29.56,SSW,208,7.0,9.0,44,0.00,,SKC,0.00,30.00,VWS V14.01,2013-09-03 23:41:00,
2013-09-03 18:46:00,89.9,65.1,29.56,SSW,208,5.0,10.0,44,0.00,,SKC,0.00,32.00,VWS V14.01,2013-09-03 23:46:00,
2013-09-03 18:50:00,89.5,65.4,29.56,SSW,208,9.0,10.0,45,0.00,,SKC,0.00,28.00,VWS V14.01,2013-09-03 23:50:00,
2013-09-03 18:51:00,89.5,65.4,29.56,SSW,208,5.0,10.0,45,0.00,,SKC,0.00,30.00,VWS V14.01,2013-09-03 23:51:00,
2013-09-03 18:56:00,88.8,66.0,29.56,West,261,7.0,14.0,47,0.00,,SKC,0.00,26.00,VWS V14.01,2013-09-03 23:56:00,
2013-09-03 19:00:00,87.4,66.5,29.55,West,261,5.0,14.0,50,0.00,,SKC,0.00,21.00,VWS V14.01,2013-09-04 00:00:00,
2013-09-03 19:01:00,87.4,66.5,29.55,West,261,2.0,14.0,50,0.00,,SKC,0.00,21.00,VWS V14.01,2013-09-04 00:01:00,
2013-09-03 19:06:00,86.1,66.4,29.56,West,261,6.0,11.0,52,0.00,,SKC,0.00,19.00,VWS V14.01,2013-09-04 00:06:00,
2013-09-03 19:10:00,85.2,66.2,29.56,West,261,5.0,11.0,53,0.00,,SKC,0.00,16.00,VWS V14.01,2013-09-04 00:10:00,
2013-09-03 19:11:00,85.3,66.2,29.56,West,261,4.0,11.0,53,0.00,,SKC,0.00,16.00,VWS V14.01,2013-09-04 00:11:00,
2013-09-03 19:16:00,84.8,65.8,29.56,West,261,4.0,10.0,53,0.00,,SKC,0.00,12.00,VWS V14.01,2013-09-04 00:16:00,
2013-09-03 19:20:00,84.5,66.1,29.57,West,261,6.0,10.0,54,0.00,,SKC,0.00,12.00,VWS V14.01,2013-09-04 00:20:00,
2013-09-03 19:21:00,84.5,66.1,29.57,West,261,3.0,10.0,54,0.00,,SKC,0.00,12.00,VWS V14.01,2013-09-04 00:21:00,
2013-09-03 19:26:00,84.2,65.8,29.57,West,261,3.0,8.0,54,0.00,,SKC,0.00,11.00,VWS V14.01,2013-09-04 00:26:00,
2013-09-03 19:30:00,84.1,65.7,29.56,West,261,2.0,8.0,54,0.00,,SKC,0.00,11.00,VWS V14.01,2013-09-04 00:30:00,
2013-09-03 19:31:00,84.1,65.7,29.56,West,261,2.0,8.0,54,0.00,,SKC,0.00,11.00,VWS V14.01,2013-09-04 00:31:00,
2013-09-03 19:36:00,84.1,65.7,29.57,West,261,4.0,7.0,54,0.00,,SKC,0.00,11.00,VWS V14.01,2013-09-04 00:36:00,
2013-09-03 19:40:00,84.2,65.8,29.57,West,261,2.0,7.0,54,0.00,,SKC,0.00,9.00,VWS V14.01,2013-09-04 00:40:00,
2013-09-03 19:41:00,84.2,65.8,29.57,West,261,1.0,7.0,54,0.00,,SKC,0.00,9.00,VWS V14.01,2013-09-04 00:41:00,
2013-09-03 19:46:00,84.1,65.7,29.57,West,261,1.0,4.0,54,0.00,,SKC,0.00,7.00,VWS V14.01,2013-09-04 00:46:00,
2013-09-03 19:50:00,84.1,66.2,29.57,West,261,0.0,4.0,55,0.00,,SKC,0.00,5.00,VWS V14.01,2013-09-04 00:50:00,
2013-09-03 19:51:00,84.0,66.1,29.57,West,261,0.0,4.0,55,0.00,,SKC,0.00,5.00,VWS V14.01,2013-09-04 00:51:00,
2013-09-03 19:56:00,84.0,65.6,29.57,West,261,0.0,0.0,54,0.00,,SKC,0.00,0.00,VWS V14.01,2013-09-04 00:56:00,
2013-09-03 20:00:00,84.0,65.6,29.56,West,261,0.0,0.0,54,0.00,,SKC,0.00,0.00,VWS V14.01,2013-09-04 01:00:00,
2013-09-03 20:01:00,83.9,65.5,29.56,West,261,0.0,0.0,54,0.00,,SKC,0.00,0.00,VWS V14.01,2013-09-04 01:01:00,
2013-09-03 20:06:00,83.9,65.5,29.56,West,261,0.0,0.0,54,0.00,,SKC,0.00,0.00,VWS V14.01,2013-09-04 01:06:00,
2013-09-03 20:10:00,83.8,65.4,29.57,West,261,0.0,0.0,54,0.00,,SKC,0.00,0.00,VWS V14.01,2013-09-04 01:10:00,
2013-09-03 20:11:00,83.8,65.4,29.57,West,261,0.0,0.0,54,0.00,,SKC,0.00,0.00,VWS V14.01,2013-09-04 01:11:00,
2013-09-03 20:16:00,83.7,65.8,29.57,West,261,0.0,0.0,55,0.00,,SKC,0.00,0.00,VWS V14.01,2013-09-04 01:16:00,
2013-09-03 20:20:00,83.3,65.5,29.57,West,261,0.0,0.0,55,0.00,,SKC,0.00,0.00,VWS V14.01,2013-09-04 01:20:00,
2013-09-03 20:21:00,83.4,65.6,29.57,West,261,0.0,0.0,55,0.00,,SKC,0.00,0.00,VWS V14.01,2013-09-04 01:21:00,
2013-09-03 20:26:00,83.2,65.4,29.57,West,261,0.0,0.0,55,0.00,,SKC,0.00,0.00,VWS V14.01,2013-09-04 01:26:00,
2013-09-03 20:30:00,83.0,65.7,29.57,West,261,0.0,0.0,56,0.00,,SKC,0.00,0.00,VWS V14.01,2013-09-04 01:30:00,
2013-09-03 20:31:00,83.0,65.7,29.57,West,261,0.0,0.0,56,0.00,,SKC,0.00,0.00,VWS V14.01,2013-09-04 01:31:00,
2013-09-03 20:36:00,83.0,65.7,29.58,West,261,0.0,0.0,56,0.00,,SKC,0.00,0.00,VWS V14.01,2013-09-04 01:36:00,
2013-09-03 20:40:00,82.9,65.6,29.57,West,261,0.0,0.0,56,0.00,,SKC,0.00,0.00,VWS V14.01,2013-09-04 01:40:00,
2013-09-03 20:41:00,82.9,65.6,29.57,West,261,0.0,0.0,56,0.00,,SKC,0.00,0.00,VWS V14.01,2013-09-04 01:41:00,
2013-09-03 20:46:00,82.8,65.5,29.58,West,261,0.0,0.0,56,0.00,,SKC,0.00,0.00,VWS V14.01,2013-09-04 01:46:00,
2013-09-03 20:50:00,82.8,65.5,29.58,West,261,0.0,0.0,56,0.00,,SKC,0.00,0.00,VWS V14.01,2013-09-04 01:50:00,
2013-09-03 20:51:00,82.8,65.5,29.58,West,261,0.0,0.0,56,0.00,,SKC,0.00,0.00,VWS V14.01,2013-09-04 01:51:00,
2013-09-03 20:56:00,82.8,64.5,29.58,West,261,1.0,1.0,54,0.00,,SKC,0.00,0.00,VWS V14.01,2013-09-04 01:56:00,
2013-09-03 21:00:00,82.8,63.9,29.58,West,261,0.0,1.0,53,0.00,,SKC,0.00,0.00,VWS V14.01,2013-09-04 02:00:00,
2013-09-03 21:01:00,82.8,63.9,29.58,West,261,0.0,1.0,53,0.00,,SKC,0.00,0.00,VWS V14.01,2013-09-04 02:01:00,
2013-09-03 21:06:00,82.8,65.0,29.58,West,261,2.0,3.0,55,0.00,,SKC,0.00,0.00,VWS V14.01,2013-09-04 02:06:00,
2013-09-03 21:10:00,82.7,64.9,29.58,West,261,0.0,3.0,55,0.00,,SKC,0.00,0.00,VWS V14.01,2013-09-04 02:10:00,
2013-09-03 21:11:00,82.7,64.9,29.58,West,261,0.0,3.0,55,0.00,,SKC,0.00,0.00,VWS V14.01,2013-09-04 02:11:00,
2013-09-03 21:16:00,82.7,64.4,29.58,West,261,0.0,0.0,54,0.00,,SKC,0.00,0.00,VWS V14.01,2013-09-04 02:16:00,
2013-09-03 21:20:00,83.0,64.1,29.58,West,261,0.0,3.0,53,0.00,,SKC,0.00,0.00,VWS V14.01,2013-09-04 02:20:00,
2013-09-03 21:21:00,83.0,64.1,29.58,West,261,1.0,3.0,53,0.00,,SKC,0.00,0.00,VWS V14.01,2013-09-04 02:21:00,
2013-09-03 21:26:00,83.4,64.5,29.58,West,261,0.0,3.0,53,0.00,,SKC,0.00,0.00,VWS V14.01,2013-09-04 02:26:00,
2013-09-03 21:30:00,83.8,64.3,29.58,West,261,0.0,3.0,52,0.00,,SKC,0.00,0.00,VWS V14.01,2013-09-04 02:30:00,
2013-09-03 21:31:00,83.8,64.3,29.58,West,261,0.0,3.0,52,0.00,,SKC,0.00,0.00,VWS V14.01,2013-09-04 02:31:00,
2013-09-03 21:36:00,84.1,64.6,29.58,West,261,0.0,0.0,52,0.00,,SKC,0.00,0.00,VWS V14.01,2013-09-04 02:36:00,
2013-09-03 21:40:00,84.3,64.2,29.58,West,261,0.0,0.0,51,0.00,,SKC,0.00,0.00,VWS V14.01,2013-09-04 02:40:00,
2013-09-03 21:41:00,84.2,64.7,29.58,West,261,0.0,0.0,52,0.00,,SKC,0.00,0.00,VWS V14.01,2013-09-04 02:41:00,
2013-09-03 21:46:00,84.3,64.8,29.59,West,261,0.0,0.0,52,0.00,,SKC,0.00,0.00,VWS V14.01,2013-09-04 02:46:00,
2013-09-03 21:50:00,84.1,64.6,29.59,West,261,0.0,1.0,52,0.00,,SKC,0.00,0.00,VWS V14.01,2013-09-04 02:50:00,
2013-09-03 21:51:00,84.1,64.6,29.59,West,261,0.0,0.0,52,0.00,,SKC,0.00,0.00,VWS V14.01,2013-09-04 02:51:00,
2013-09-03 21:56:00,84.0,64.5,29.59,West,261,0.0,1.0,52,0.00,,SKC,0.00,0.00,VWS V14.01,2013-09-04 02:56:00,
2013-09-03 22:00:00,84.2,64.7,29.59,West,261,0.0,2.0,52,0.00,,SKC,0.00,0.00,VWS V14.01,2013-09-04 03:00:00,
2013-09-03 22:01:00,84.1,64.6,29.59,West,261,0.0,2.0,52,0.00,,SKC,0.00,0.00,VWS V14.01,2013-09-04 03:01:00,
2013-09-03 22:06:00,84.4,64.3,29.59,West,261,1.0,2.0,51,0.00,,SKC,0.00,0.00,VWS V14.01,2013-09-04 03:06:00,
2013-09-03 22:10:00,84.6,64.5,29.59,West,261,0.0,2.0,51,0.00,,SKC,0.00,0.00,VWS V14.01,2013-09-04 03:10:00,
2013-09-03 22:11:00,84.6,64.5,29.59,West,261,0.0,2.0,51,0.00,,SKC,0.00,0.00,VWS V14.01,2013-09-04 03:11:00,
2013-09-03 22:16:00,84.8,64.7,29.60,West,261,2.0,2.0,51,0.00,,SKC,0.00,0.00,VWS V14.01,2013-09-04 03:16:00,
2013-09-03 22:20:00,85.1,64.4,29.59,West,261,2.0,3.0,50,0.00,,SKC,0.00,0.00,VWS V14.01,2013-09-04 03:20:00,
2013-09-03 22:21:00,85.0,64.9,29.59,West,261,3.0,3.0,51,0.00,,SKC,0.00,0.00,VWS V14.01,2013-09-04 03:21:00,
2013-09-03 22:26:00,85.4,64.7,29.60,West,261,3.0,4.0,50,0.00,,SKC,0.00,0.00,VWS V14.01,2013-09-04 03:26:00,
2013-09-03 22:30:00,85.7,64.9,29.60,West,261,2.0,4.0,50,0.00,,SKC,0.00,0.00,VWS V14.01,2013-09-04 03:30:00,
2013-09-03 22:31:00,85.7,64.9,29.60,West,261,3.0,4.0,50,0.00,,SKC,0.00,0.00,VWS V14.01,2013-09-04 03:31:00,
2013-09-03 22:36:00,85.8,64.4,29.60,West,261,2.0,3.0,49,0.00,,SKC,0.00,0.00,VWS V14.01,2013-09-04 03:36:00,
2013-09-03 22:40:00,85.9,64.5,29.60,West,261,1.0,3.0,49,0.00,,SKC,0.00,0.00,VWS V14.01,2013-09-04 03:40:00,
2013-09-03 22:41:00,85.9,64.5,29.60,West,261,1.0,3.0,49,0.00,,SKC,0.00,0.00,VWS V14.01,2013-09-04 03:41:00,
2013-09-03 22:46:00,86.0,64.6,29.60,West,261,0.0,2.0,49,0.00,,SKC,0.00,0.00,VWS V14.01,2013-09-04 03:46:00,
2013-09-03 22:50:00,85.6,64.8,29.60,West,261,0.0,2.0,50,0.00,,SKC,0.00,0.00,VWS V14.01,2013-09-04 03:50:00,
2013-09-03 22:51:00,85.7,64.9,29.60,West,261,0.0,2.0,50,0.00,,SKC,0.00,0.00,VWS V14.01,2013-09-04 03:51:00,
2013-09-03 22:56:00,85.1,65.0,29.60,West,261,0.0,0.0,51,0.00,,SKC,0.00,0.00,VWS V14.01,2013-09-04 03:56:00,
2013-09-03 23:00:00,84.7,65.1,29.59,West,261,0.0,0.0,52,0.00,,SKC,0.00,0.00,VWS V14.01,2013-09-04 04:00:00,
2013-09-03 23:01:00,84.8,65.2,29.59,West,261,0.0,0.0,52,0.00,,SKC,0.00,0.00,VWS V14.01,2013-09-04 04:01:00,
2013-09-03 23:02:00,84.7,65.1,29.59,West,261,0.0,0.0,52,0.00,,SKC,0.00,0.00,VWS V14.01,2013-09-04 04:02:00,
2013-09-03 23:07:00,84.2,64.7,29.59,West,261,0.0,0.0,52,0.00,,SKC,0.00,0.00,VWS V14.01,2013-09-04 04:07:00,
2013-09-03 23:10:00,83.7,64.8,29.60,West,261,0.0,0.0,53,0.00,,SKC,0.00,0.00,VWS V14.01,2013-09-04 04:10:00,
2013-09-03 23:12:00,83.7,64.8,29.60,West,261,0.0,0.0,53,0.00,,SKC,0.00,0.00,VWS V14.01,2013-09-04 04:12:00,
2013-09-03 23:17:00,83.1,64.2,29.60,West,261,1.0,3.0,53,0.00,,SKC,0.00,0.00,VWS V14.01,2013-09-04 04:17:00,
2013-09-03 23:20:00,83.0,64.7,29.59,West,261,0.0,3.0,54,0.00,,SKC,0.00,0.00,VWS V14.01,2013-09-04 04:20:00,
2013-09-03 23:22:00,83.0,64.7,29.60,West,261,3.0,3.0,54,0.00,,SKC,0.00,0.00,VWS V14.01,2013-09-04 04:22:00,
2013-09-03 23:27:00,83.3,64.4,29.60,West,261,1.0,3.0,53,0.00,,SKC,0.00,0.00,VWS V14.01,2013-09-04 04:27:00,
2013-09-03 23:30:00,83.5,64.0,29.59,West,261,1.0,3.0,52,0.00,,SKC,0.00,0.00,VWS V14.01,2013-09-04 04:30:00,
2013-09-03 23:32:00,83.5,64.0,29.59,West,261,0.0,1.0,52,0.00,,SKC,0.00,0.00,VWS V14.01,2013-09-04 04:32:00,
2013-09-03 23:37:00,83.8,64.3,29.60,West,261,2.0,3.0,52,0.00,,SKC,0.00,0.00,VWS V14.01,2013-09-04 04:37:00,
2013-09-03 23:40:00,83.8,64.3,29.60,West,261,0.0,3.0,52,0.00,,SKC,0.00,0.00,VWS V14.01,2013-09-04 04:40:00,
2013-09-03 23:42:00,83.8,64.3,29.60,West,261,0.0,0.0,52,0.00,,SKC,0.00,0.00,VWS V14.01,2013-09-04 04:42:00,
2013-09-03 23:47:00,83.8,64.9,29.60,West,261,0.0,0.0,53,0.00,,SKC,0.00,0.00,VWS V14.01,2013-09-04 04:47:00,
2013-09-03 23:50:00,83.6,64.7,29.59,West,261,0.0,0.0,53,0.00,,SKC,0.00,0.00,VWS V14.01,2013-09-04 04:50:00,
2013-09-03 23:52:00,83.6,64.7,29.59,West,261,0.0,0.0,53,0.00,,SKC,0.00,0.00,VWS V14.01,2013-09-04 04:52:00,
2013-09-03 23:57:00,83.3,64.4,29.59,West,261,0.0,1.0,53,0.00,,SKC,0.00,0.00,VWS V14.01,2013-09-04 04:57:00,